Home > Weather > Kristiansund > Past weeks

Flag for Norway Past Weather in Kristiansund, Norway — Yesterday and Last 2 Weeks

Now
55 °F

Sunny.


Feels Like: 53 °F
Forecast: 53 / 58 °F
Wind: 9 mph from East

Location: Kristiansund / Kvernberget

Current Time: Aug 26, 2016 at 9:06:38 AM

Latest Report: Aug 26, 2016 at 8:20 AM


Visibility: 10 mi

Pressure: 29.86 "Hg

Humidity: 82%

Dew Point: 50 °F

Location of KristiansundLocation

Past Weather in Kristiansund — Graph

°F

Kristiansund Temperature Yesterday

Maximum temperature yesterday: 57 °F (at 9:50 AM)
Minimum temperature yesterday: 54 °F (at 11:50 PM)
Average temperature yesterday: 56 °F

High & Low Weather Summary for the Past Weeks

 TemperatureHumidityPressure
High70 °F (Aug 17, 2:50 PM)100% (Aug 13, 12:20 AM)30.30 "Hg (Aug 13, 12:20 AM)
Low45 °F (Aug 11, 11:50 PM)53% (Aug 17, 4:50 PM)29.47 "Hg (Aug 12, 8:20 PM)
Average56 °F86%29.98 "Hg
* Reported Aug 11 7:20 AM — Aug 26 7:50 AM, Kristiansund, Weather by CustomWeather, © 2016

Note: Actual official high and low records may vary slightly from our data, if they occured in-between our weather recording intervals... More about our weather records

Advertising

Kristiansund Weather History for the Previous 24 Hours

Scroll right to see more
 ConditionsComfort  
Time TempWeatherWind HumidityBarometerVisibility
7:50 AM
Fri, Aug 26
55 °FSunny.6 mph82%29.89 "Hg10 mi
7:20 AM54 °FSunny.7 mph88%29.92 "Hg10 mi
6:50 AM54 °FClear.8 mph88%29.92 "Hg10 mi
6:20 AM52 °FClear.7 mph88%29.92 "Hg10 mi
5:50 AM52 °FCool.6 mph94%29.95 "HgN/A
5:20 AM52 °FCool.8 mph94%29.95 "HgN/A
4:50 AM52 °FCool.6 mph94%29.98 "HgN/A
4:20 AM52 °FCool.8 mph94%29.98 "HgN/A
3:50 AM52 °FCool.10 mph94%30.01 "HgN/A
3:20 AM54 °FCool.8 mph88%30.01 "HgN/A
2:50 AM52 °FCool.7 mph94%30.01 "HgN/A
2:20 AM54 °FCool.7 mph88%30.04 "HgN/A
1:50 AM54 °FPassing clouds.5 mph88%30.04 "HgN/A
1:20 AM52 °FCool.9 mph94%30.04 "HgN/A
12:50 AM54 °FCool.5 mph88%30.07 "HgN/A
12:20 AM54 °FCool.3 mph88%30.07 "HgN/A
11:50 PM
Thu, Aug 25
54 °FPassing clouds.6 mph88%30.07 "HgN/A
11:20 PM55 °FPassing clouds.7 mph88%30.07 "HgN/A
10:50 PM55 °FPassing clouds.7 mph88%30.07 "HgN/A
10:20 PM55 °FPassing clouds.8 mph82%30.07 "HgN/A
9:50 PM55 °FPartly sunny.8 mph82%30.09 "HgN/A
9:20 PM55 °FPartly sunny.9 mph82%30.09 "HgN/A
8:50 PM57 °FPartly sunny.8 mph77%30.09 "HgN/A
8:20 PM57 °FPartly sunny.7 mph82%30.09 "HgN/A
7:50 PM57 °FPartly sunny.6 mph77%30.09 "HgN/A
7:20 PM57 °FPartly sunny.6 mph82%30.09 "HgN/A
6:50 PM55 °FPartly sunny.5 mph82%30.09 "HgN/A
6:20 PM55 °FPartly sunny.3 mph82%30.09 "HgN/A
5:50 PM55 °FPartly sunny.5 mph82%30.09 "HgN/A
5:20 PM55 °FBroken clouds.2 mph82%30.09 "HgN/A
4:50 PM55 °FBroken clouds.5 mph88%30.09 "HgN/A
4:20 PM55 °FBroken clouds.5 mph82%30.12 "HgN/A
3:50 PM55 °FPartly sunny.5 mph82%30.12 "HgN/A
3:20 PM55 °FPartly sunny.5 mph88%30.12 "HgN/A
2:50 PM57 °FPartly sunny.3 mph77%30.12 "HgN/A
2:20 PM57 °FPartly sunny.3 mph77%30.15 "HgN/A
1:50 PM57 °FPartly sunny.3 mph77%30.12 "HgN/A
1:20 PM57 °FPartly sunny.5 mph77%30.15 "HgN/A
12:50 PM57 °FPartly sunny.5 mph82%30.15 "HgN/A
12:20 PM57 °FBroken clouds.6 mph82%30.12 "HgN/A
11:50 AM57 °FBroken clouds.7 mph72%30.12 "HgN/A
11:20 AM57 °FPartly sunny.8 mph72%30.12 "HgN/A
10:50 AM57 °FPartly sunny.7 mph72%30.12 "HgN/A
10:20 AM57 °FPartly sunny.10 mph72%30.15 "HgN/A
9:50 AM57 °FBroken clouds.7 mph72%30.12 "HgN/A
9:20 AM55 °FBroken clouds.7 mph77%30.12 "HgN/A
Weather by CustomWeather, © 2016

See weather overviewHow to use our weather pages